![]() |
EMODnet Physics ERDDAP
Easier access to scientific data |
log in|
Brought to you by EMODnet Physics |
| Dataset Title: | NDBC - Collection of dew point temperature (DEWT) TimeSeries - IN SITU MultiPointTimeSeriesObservation
|
| Institution: | NDBC (Dataset ID: TS_DEWT_NDBC) |
| Information: | Summary
| License
| FGDC
| ISO 19115
| Metadata
| Background
| Subset
| Data Access Form
| Make a graph
|
| Name | Last modified | Size | Description | |
|---|---|---|---|---|
| Parent Directory | - | - | ||
| 46076_TS_DEWT_012006.nc | 26-Dec-2024 16:47 | 428617 | ||
| 46076_TS_DEWT_012007.nc | 26-Dec-2024 16:49 | 447425 | ||
| 46076_TS_DEWT_012010.nc | 26-Dec-2024 16:53 | 449739 | ||
| 46076_TS_DEWT_012011.nc | 26-Dec-2024 16:55 | 447254 | ||
| 46076_TS_DEWT_012013.nc | 26-Dec-2024 16:57 | 448139 | ||
| 46076_TS_DEWT_012015.nc | 26-Dec-2024 17:01 | 446892 | ||
| 46076_TS_DEWT_012016.nc | 26-Dec-2024 17:03 | 447879 | ||
| 46076_TS_DEWT_012017.nc | 26-Dec-2024 17:05 | 446438 | ||
| 46076_TS_DEWT_012020.nc | 26-Dec-2024 17:11 | 428811 | ||
| 46076_TS_DEWT_012022.nc | 26-Dec-2024 17:16 | 449092 | ||
| 46076_TS_DEWT_012023.nc | 26-Dec-2024 17:20 | 435626 | ||
| 46076_TS_DEWT_022006.nc | 26-Dec-2024 16:48 | 448309 | ||
| 46076_TS_DEWT_022011.nc | 26-Dec-2024 16:55 | 447515 | ||
| 46076_TS_DEWT_022013.nc | 26-Dec-2024 16:58 | 448163 | ||
| 46076_TS_DEWT_022015.nc | 26-Dec-2024 17:01 | 447256 | ||
| 46076_TS_DEWT_022016.nc | 26-Dec-2024 17:03 | 447644 | ||
| 46076_TS_DEWT_022017.nc | 26-Dec-2024 17:05 | 427815 | ||
| 46076_TS_DEWT_022020.nc | 26-Dec-2024 17:11 | 448362 | ||
| 46076_TS_DEWT_022022.nc | 26-Dec-2024 17:16 | 447773 | ||
| 46076_TS_DEWT_022023.nc | 26-Dec-2024 17:20 | 447368 | ||
| 46076_TS_DEWT_032010.nc | 26-Dec-2024 16:53 | 439108 | ||
| 46076_TS_DEWT_032011.nc | 26-Dec-2024 16:55 | 435517 | ||
| 46076_TS_DEWT_032013.nc | 26-Dec-2024 16:58 | 443407 | ||
| 46076_TS_DEWT_032015.nc | 26-Dec-2024 17:02 | 446629 | ||
| 46076_TS_DEWT_032016.nc | 26-Dec-2024 17:03 | 427091 | ||
| 46076_TS_DEWT_032017.nc | 26-Dec-2024 17:06 | 419275 | ||
| 46076_TS_DEWT_032020.nc | 26-Dec-2024 17:11 | 5094826 | ||
| 46076_TS_DEWT_032022.nc | 26-Dec-2024 17:16 | 429572 | ||
| 46076_TS_DEWT_032023.nc | 26-Dec-2024 17:21 | 429608 | ||
| 46076_TS_DEWT_042009.nc | 26-Dec-2024 16:51 | 429603 | ||
| 46076_TS_DEWT_042010.nc | 26-Dec-2024 16:53 | 429622 | ||
| 46076_TS_DEWT_042011.nc | 26-Dec-2024 16:55 | 425897 | ||
| 46076_TS_DEWT_042013.nc | 26-Dec-2024 16:58 | 429612 | ||
| 46076_TS_DEWT_042015.nc | 26-Dec-2024 17:02 | 428536 | ||
| 46076_TS_DEWT_042016.nc | 26-Dec-2024 17:04 | 429335 | ||
| 46076_TS_DEWT_042017.nc | 26-Dec-2024 17:06 | 429600 | ||
| 46076_TS_DEWT_042020.nc | 26-Dec-2024 17:12 | 429527 | ||
| 46076_TS_DEWT_042022.nc | 26-Dec-2024 17:16 | 429471 | ||
| 46076_TS_DEWT_042023.nc | 26-Dec-2024 17:21 | 429618 | ||
| 46076_TS_DEWT_052009.nc | 26-Dec-2024 16:51 | 429620 | ||
| 46076_TS_DEWT_052010.nc | 26-Dec-2024 16:53 | 429626 | ||
| 46076_TS_DEWT_052011.nc | 26-Dec-2024 16:55 | 429613 | ||
| 46076_TS_DEWT_052013.nc | 26-Dec-2024 16:58 | 450253 | ||
| 46076_TS_DEWT_052016.nc | 26-Dec-2024 17:04 | 450287 | ||
| 46076_TS_DEWT_052017.nc | 26-Dec-2024 17:06 | 448849 | ||
| 46076_TS_DEWT_052020.nc | 26-Dec-2024 17:12 | 451098 | ||
| 46076_TS_DEWT_052022.nc | 26-Dec-2024 17:17 | 449901 | ||
| 46076_TS_DEWT_052023.nc | 26-Dec-2024 17:21 | 450574 | ||
| 46076_TS_DEWT_062005.nc | 26-Dec-2024 16:46 | 451443 | ||
| 46076_TS_DEWT_062006.nc | 26-Dec-2024 16:48 | 429835 | ||
| 46076_TS_DEWT_062008.nc | 26-Dec-2024 16:50 | 449857 | ||
| 46076_TS_DEWT_062009.nc | 26-Dec-2024 16:52 | 446661 | ||
| 46076_TS_DEWT_062010.nc | 26-Dec-2024 16:54 | 450215 | ||
| 46076_TS_DEWT_062011.nc | 26-Dec-2024 16:56 | 450389 | ||
| 46076_TS_DEWT_062016.nc | 26-Dec-2024 17:04 | 450037 | ||
| 46076_TS_DEWT_062017.nc | 26-Dec-2024 17:06 | 452058 | ||
| 46076_TS_DEWT_062020.nc | 26-Dec-2024 17:12 | 451223 | ||
| 46076_TS_DEWT_062021.nc | 26-Dec-2024 17:14 | 450646 | ||
| 46076_TS_DEWT_062022.nc | 26-Dec-2024 17:17 | 450673 | ||
| 46076_TS_DEWT_062023.nc | 26-Dec-2024 17:22 | 449916 | ||
| 46076_TS_DEWT_072005.nc | 26-Dec-2024 16:46 | 446632 | ||
| 46076_TS_DEWT_072006.nc | 26-Dec-2024 16:48 | 450334 | ||
| 46076_TS_DEWT_072008.nc | 26-Dec-2024 16:50 | 422380 | ||
| 46076_TS_DEWT_072009.nc | 26-Dec-2024 16:52 | 428020 | ||
| 46076_TS_DEWT_072010.nc | 26-Dec-2024 16:54 | 450634 | ||
| 46076_TS_DEWT_072011.nc | 26-Dec-2024 16:56 | 423467 | ||
| 46076_TS_DEWT_072014.nc | 26-Dec-2024 17:00 | 3300629 | ||
| 46076_TS_DEWT_072015.nc | 26-Dec-2024 17:02 | 429044 | ||
| 46076_TS_DEWT_072016.nc | 26-Dec-2024 17:04 | 429274 | ||
| 46076_TS_DEWT_072017.nc | 26-Dec-2024 17:06 | 429274 | ||
| 46076_TS_DEWT_072019.nc | 26-Dec-2024 17:10 | 429286 | ||
| 46076_TS_DEWT_072020.nc | 26-Dec-2024 17:12 | 429294 | ||
| 46076_TS_DEWT_072021.nc | 26-Dec-2024 17:14 | 429290 | ||
| 46076_TS_DEWT_072022.nc | 26-Dec-2024 17:17 | 428741 | ||
| 46076_TS_DEWT_072023.nc | 26-Dec-2024 17:22 | 429290 | ||
| 46076_TS_DEWT_082005.nc | 26-Dec-2024 16:47 | 429293 | ||
| 46076_TS_DEWT_082006.nc | 26-Dec-2024 16:49 | 429284 | ||
| 46076_TS_DEWT_082007.nc | 26-Dec-2024 16:49 | 429204 | ||
| 46076_TS_DEWT_082008.nc | 26-Dec-2024 16:50 | 429298 | ||
| 46076_TS_DEWT_082009.nc | 26-Dec-2024 16:52 | 429286 | ||
| 46076_TS_DEWT_082010.nc | 26-Dec-2024 16:54 | 449373 | ||
| 46076_TS_DEWT_082011.nc | 26-Dec-2024 16:56 | 429297 | ||
| 46076_TS_DEWT_082012.nc | 26-Dec-2024 16:57 | 449664 | ||
| 46076_TS_DEWT_082014.nc | 26-Dec-2024 17:00 | 450208 | ||
| 46076_TS_DEWT_082015.nc | 26-Dec-2024 17:02 | 448933 | ||
| 46076_TS_DEWT_082016.nc | 26-Dec-2024 17:04 | 448572 | ||
| 46076_TS_DEWT_082017.nc | 26-Dec-2024 17:06 | 450169 | ||
| 46076_TS_DEWT_082019.nc | 26-Dec-2024 17:10 | 450311 | ||
| 46076_TS_DEWT_082020.nc | 26-Dec-2024 17:12 | 449890 | ||
| 46076_TS_DEWT_082021.nc | 26-Dec-2024 17:15 | 429498 | ||
| 46076_TS_DEWT_082022.nc | 26-Dec-2024 17:18 | 449777 | ||
| 46076_TS_DEWT_082023.nc | 26-Dec-2024 17:23 | 429497 | ||
| 46076_TS_DEWT_092005.nc | 26-Dec-2024 16:47 | 440768 | ||
| 46076_TS_DEWT_092006.nc | 26-Dec-2024 16:49 | 449090 | ||
| 46076_TS_DEWT_092007.nc | 26-Dec-2024 16:50 | 450378 | ||
| 46076_TS_DEWT_092008.nc | 26-Dec-2024 16:51 | 449106 | ||
| 46076_TS_DEWT_092009.nc | 26-Dec-2024 16:52 | 449908 | ||
| 46076_TS_DEWT_092010.nc | 26-Dec-2024 16:54 | 449514 | ||
| 46076_TS_DEWT_092011.nc | 26-Dec-2024 16:56 | 448837 | ||
| 46076_TS_DEWT_092012.nc | 26-Dec-2024 16:57 | 449612 | ||
| 46076_TS_DEWT_092014.nc | 26-Dec-2024 17:01 | 449906 | ||
| 46076_TS_DEWT_092015.nc | 26-Dec-2024 17:02 | 418799 | ||
| 46076_TS_DEWT_092016.nc | 26-Dec-2024 17:04 | 449047 | ||
| 46076_TS_DEWT_092017.nc | 26-Dec-2024 17:07 | 425520 | ||
| 46076_TS_DEWT_092019.nc | 26-Dec-2024 17:10 | 447469 | ||
| 46076_TS_DEWT_092020.nc | 26-Dec-2024 17:12 | 422604 | ||
| 46076_TS_DEWT_092021.nc | 26-Dec-2024 17:15 | 429585 | ||
| 46076_TS_DEWT_092022.nc | 26-Dec-2024 17:18 | 429608 | ||
| 46076_TS_DEWT_092023.nc | 26-Dec-2024 17:23 | 429570 | ||
| 46076_TS_DEWT_102005.nc | 26-Dec-2024 16:47 | 429600 | ||
| 46076_TS_DEWT_102006.nc | 26-Dec-2024 16:49 | 429614 | ||
| 46076_TS_DEWT_102007.nc | 26-Dec-2024 16:50 | 428569 | ||
| 46076_TS_DEWT_102008.nc | 26-Dec-2024 16:51 | 429622 | ||
| 46076_TS_DEWT_102009.nc | 26-Dec-2024 16:52 | 429613 | ||
| 46076_TS_DEWT_102010.nc | 26-Dec-2024 16:54 | 429618 | ||
| 46076_TS_DEWT_102011.nc | 26-Dec-2024 16:56 | 429628 | ||
| 46076_TS_DEWT_102012.nc | 26-Dec-2024 16:57 | 426485 | ||
| 46076_TS_DEWT_102014.nc | 26-Dec-2024 17:01 | 429614 | ||
| 46076_TS_DEWT_102015.nc | 26-Dec-2024 17:03 | 429627 | ||
| 46076_TS_DEWT_102016.nc | 26-Dec-2024 17:05 | 450672 | ||
| 46076_TS_DEWT_102017.nc | 26-Dec-2024 17:07 | 429296 | ||
| 46076_TS_DEWT_102019.nc | 26-Dec-2024 17:10 | 428526 | ||
| 46076_TS_DEWT_102020.nc | 26-Dec-2024 17:13 | 451228 | ||
| 46076_TS_DEWT_102021.nc | 26-Dec-2024 17:15 | 450421 | ||
| 46076_TS_DEWT_102022.nc | 26-Dec-2024 17:19 | 450699 | ||
| 46076_TS_DEWT_102023.nc | 26-Dec-2024 17:24 | 450893 | ||
| 46076_TS_DEWT_112005.nc | 26-Dec-2024 16:47 | 450148 | ||
| 46076_TS_DEWT_112006.nc | 26-Dec-2024 16:49 | 450896 | ||
| 46076_TS_DEWT_112007.nc | 26-Dec-2024 16:50 | 429837 | ||
| 46076_TS_DEWT_112008.nc | 26-Dec-2024 16:51 | 450681 | ||
| 46076_TS_DEWT_112009.nc | 26-Dec-2024 16:52 | 429836 | ||
| 46076_TS_DEWT_112010.nc | 26-Dec-2024 16:54 | 449743 | ||
| 46076_TS_DEWT_112012.nc | 26-Dec-2024 16:57 | 450046 | ||
| 46076_TS_DEWT_112014.nc | 26-Dec-2024 17:01 | 450095 | ||
| 46076_TS_DEWT_112015.nc | 26-Dec-2024 17:03 | 449995 | ||
| 46076_TS_DEWT_112016.nc | 26-Dec-2024 17:05 | 451490 | ||
| 46076_TS_DEWT_112017.nc | 26-Dec-2024 17:07 | 449786 | ||
| 46076_TS_DEWT_112019.nc | 26-Dec-2024 17:11 | 449791 | ||
| 46076_TS_DEWT_112020.nc | 26-Dec-2024 17:13 | 448896 | ||
| 46076_TS_DEWT_112021.nc | 26-Dec-2024 17:15 | 451131 | ||
| 46076_TS_DEWT_112022.nc | 26-Dec-2024 17:19 | 429840 | ||
| 46076_TS_DEWT_112023.nc | 26-Dec-2024 17:24 | 433507 | ||
| 46076_TS_DEWT_122005.nc | 26-Dec-2024 16:47 | 419494 | ||
| 46076_TS_DEWT_122006.nc | 26-Dec-2024 16:49 | 437555 | ||
| 46076_TS_DEWT_122008.nc | 26-Dec-2024 16:51 | 421207 | ||
| 46076_TS_DEWT_122009.nc | 26-Dec-2024 16:53 | 429269 | ||
| 46076_TS_DEWT_122010.nc | 26-Dec-2024 16:55 | 429273 | ||
| 46076_TS_DEWT_122012.nc | 26-Dec-2024 16:57 | 429277 | ||
| 46076_TS_DEWT_122014.nc | 26-Dec-2024 17:01 | 429289 | ||
| 46076_TS_DEWT_122015.nc | 26-Dec-2024 17:03 | 429291 | ||
| 46076_TS_DEWT_122016.nc | 26-Dec-2024 17:05 | 428083 | ||
| 46076_TS_DEWT_122017.nc | 26-Dec-2024 17:07 | 429273 | ||
| 46076_TS_DEWT_122019.nc | 26-Dec-2024 17:11 | 429293 | ||
| 46076_TS_DEWT_122020.nc | 26-Dec-2024 17:13 | 429284 | ||
| 46076_TS_DEWT_122021.nc | 26-Dec-2024 17:15 | 429288 | ||
| 46076_TS_DEWT_122022.nc | 26-Dec-2024 17:20 | 429293 | ||
| 46076_TS_DEWT_122023.nc | 29-Dec-2024 09:19 | 429292 | ||